Simultaneous Nadir Overpasses (SNOs) Predictions

Prediction of SNOs between LANDSAT-8 and NOAA-19 Satellite Orbit:

Table of predicted SNOs for the next 14.0 days since TLE Epoch: 10/8/2022
Index Date (LANDSAT-8) Time (LANDSAT-8) Lat,Lon (LANDSAT-8) SZA (LANDSAT-8 ) Date (NOAA-19) Time (NOAA-19) Lat,Lon (NOAA-19) SZA (NOAA-19 ) Distance(km) Time Diff (sec)
1 10/10/2022 09:29:33 80.86, 73.99 89.60 10/10/2022 09:29:43 80.87, 73.95 89.61 1.10 10
2 10/12/2022 15:03:15 -80.87, 170.68 89.53 10/12/2022 15:02:29 -80.87, 170.74 89.55 1.05 46
3 10/12/2022 15:52:41 80.87, -21.65 90.49 10/12/2022 15:53:32 80.86, -21.65 90.51 0.84 51
4 10/14/2022 21:26:23 -80.87, 74.95 88.67 10/14/2022 21:26:18 -80.87, 74.95 88.68 0.56 5
5 10/17/2022 03:00:04 80.87, 171.46 92.15 10/17/2022 02:59:13 80.87, 171.42 92.13 0.98 51
6 10/17/2022 03:49:31 -80.87, -20.89 87.84 10/17/2022 03:50:07 -80.87, -20.90 87.82 0.15 36
7 10/19/2022 09:23:11 80.88, 75.83 93.01 10/19/2022 09:23:01 80.87, 75.96 93.01 2.68 10
8 10/21/2022 14:56:52 -80.89, 172.49 86.18 10/21/2022 14:55:46 -80.87, 172.48 86.22 1.47 66



Historial Predications of SNOs between LANDSAT-8 and NOAA-19
